This demonstration page uses our WeatherBlox Daily Observations layout. Learn more.

39.51506, -84.39828

Hourly Observations for November 12, 2018

Temp ( °F °C ) Dew Point ( °F °C ) Humidity (%) Winds ( mph kmh ) Pressure ( in mb ) Visibility ( mi km ) Precip ( " mm )
12:15 am 00:15 undefined N/A N/A N/A undefined N/A N/A N/A 0 0
12:35 am 00:35 undefined N/A N/A N/A undefined N/A N/A N/A 0 0
12:55 am 00:55 undefined N/A N/A N/A undefined N/A N/A N/A 0 0
1:15 am 01:15 undefined N/A N/A N/A undefined N/A N/A N/A 0 0
1:35 am 01:35 undefined N/A N/A N/A undefined N/A N/A N/A 0 0
1:55 am 01:55 undefined N/A N/A N/A undefined N/A N/A N/A 0 0
2:15 am 02:15 undefined N/A N/A N/A undefined N/A N/A N/A 0 0
2:35 am 02:35 undefined N/A N/A N/A undefined N/A N/A N/A 0 0
2:55 am 02:55 undefined N/A N/A N/A undefined N/A N/A N/A 0 0
3:15 am 03:15 undefined N/A N/A N/A undefined N/A N/A N/A 0 0
3:35 am 03:35 undefined N/A N/A N/A undefined N/A N/A N/A 0 0
3:55 am 03:55 undefined N/A N/A N/A undefined N/A N/A N/A 0 0
4:15 am 04:15 undefined N/A N/A N/A undefined N/A N/A N/A 0 0
4:35 am 04:35 undefined N/A N/A N/A undefined N/A N/A N/A 0 0
4:55 am 04:55 undefined N/A N/A N/A undefined N/A N/A N/A 0 0
5:15 am 05:15 undefined N/A N/A N/A undefined N/A N/A N/A 0 0
5:35 am 05:35 undefined N/A N/A N/A undefined N/A N/A N/A 0 0
5:55 am 05:55 undefined N/A N/A N/A undefined N/A N/A N/A 0 0
6:15 am 06:15 undefined N/A N/A N/A undefined N/A N/A N/A 0 0
6:35 am 06:35 undefined N/A N/A N/A undefined N/A N/A N/A 0 0
6:55 am 06:55 undefined N/A N/A N/A undefined N/A N/A N/A 0 0
7:15 am 07:15 undefined N/A N/A N/A undefined N/A N/A N/A 0 0
7:35 am 07:35 undefined N/A N/A N/A undefined N/A N/A N/A 0 0
7:55 am 07:55 undefined N/A N/A N/A undefined N/A N/A N/A 0 0
8:15 am 08:15 undefined N/A N/A N/A undefined N/A N/A N/A 0 0
8:35 am 08:35 undefined N/A N/A N/A undefined N/A N/A N/A 0 0
8:55 am 08:55 undefined N/A N/A N/A undefined N/A N/A N/A 0 0
9:15 am 09:15 undefined N/A N/A N/A undefined N/A N/A N/A 0 0
9:35 am 09:35 undefined N/A N/A N/A undefined N/A N/A N/A 0 0
9:55 am 09:55 undefined N/A N/A N/A undefined N/A N/A N/A 0 0
10:15 am 10:15 undefined N/A N/A N/A undefined N/A N/A N/A 0 0
10:35 am 10:35 undefined N/A N/A N/A undefined N/A N/A N/A 0 0
10:55 am 10:55 undefined N/A N/A N/A undefined N/A N/A N/A 0 0
11:15 am 11:15 undefined N/A N/A N/A undefined N/A N/A N/A 0 0
11:35 am 11:35 undefined N/A N/A N/A undefined N/A N/A N/A 0 0
11:55 am 11:55 undefined N/A N/A N/A undefined N/A N/A N/A 0 0
12:15 pm 12:15 undefined N/A N/A N/A undefined N/A N/A N/A 0 0
12:35 pm 12:35 undefined N/A N/A N/A undefined N/A N/A N/A 0 0
12:55 pm 12:55 undefined N/A N/A N/A undefined N/A N/A N/A 0 0
1:15 pm 13:15 undefined N/A N/A N/A undefined N/A N/A N/A 0 0
1:35 pm 13:35 undefined N/A N/A N/A undefined N/A N/A N/A 0 0
1:55 pm 13:55 Cloudy with Haze 44 6.6 27 -3 51 51 NNE 5 7 30.24 1024 7 11.26538 0 0
2:15 pm 14:15 Cloudy 44 6.8 26 -3.5 48 48 NE 6 9 30.24 1024 10 16.0934 0 0
2:35 pm 14:35 Cloudy 45 7 24 -4.4 44 44 ENE 6 9 30.21 1023 10 16.0934 0 0
2:55 pm 14:55 Cloudy 45 7 25 -3.9 46 46 E 8 13 30.21 1023 10 16.0934 0 0
3:15 pm 15:15 Cloudy 44 6.9 25 -3.7 47 47 E 7 11 30.21 1023 10 16.0934 0 0
3:35 pm 15:35 Cloudy 44 6.7 25 -3.8 47 47 E 7 11 30.21 1023 10 16.0934 0 0
3:55 pm 15:55 Cloudy 44 6.4 26 -3.3 50 50 E 7 11 30.21 1023 10 16.0934 0 0
4:15 pm 16:15 Cloudy 43 6.3 27 -3 52 52 Calm 30.21 1023 10 16.0934 0 0
4:35 pm 16:35 Cloudy 43 6.1 27 -2.6 54 54 NE 6 9 30.21 1023 10 16.0934 0 0
4:55 pm 16:55 Cloudy 43 5.9 28 -2.5 55 55 NE 6 9 30.18 1022 10 16.0934 0 0
5:15 pm 17:15 Cloudy 42 5.7 28 -2.5 56 56 NE 5 7 30.18 1022 10 16.0934 0 0
5:35 pm 17:35 Cloudy 42 5.4 28 -2.3 58 58 NNE 5 7 30.18 1022 10 16.0934 0 0
5:55 pm 17:55 Cloudy 42 5.4 27 -2.7 56 56 NNE 3 6 30.18 1022 10 16.0934 0 0
6:15 pm 18:15 Cloudy 41 5.1 28 -2.3 59 59 NE 5 7 30.21 1023 10 16.0934 0 0
6:35 pm 18:35 Cloudy 41 5.1 28 -2.5 58 58 NE 3 6 30.21 1023 10 16.0934 0 0
6:55 pm 18:55 Cloudy 41 5.1 28 -2.4 59 59 Calm 30.21 1023 10 16.0934 0 0
7:15 pm 19:15 Cloudy 41 4.9 28 -2.1 61 61 Calm 30.21 1023 10 16.0934 0 0
7:35 pm 19:35 Cloudy 41 4.8 27 -2.6 59 59 Calm 30.24 1024 10 16.0934 0 0
7:55 pm 19:55 Cloudy 41 4.9 26 -3.2 56 56 N 6 9 30.24 1024 10 16.0934 0 0
8:15 pm 20:15 Cloudy 41 4.9 26 -3.5 55 55 NNE 6 9 30.21 1023 10 16.0934 0 0
8:30 pm 20:30 Cloudy 41 4.9 26 -3.4 55 55 N 5 7 30.21 1023 10 16.0934 0 0
8:55 pm 20:55 Cloudy 40 4.7 25 -3.7 55 55 N 3 6 30.24 1024 10 16.0934 0 0
9:15 pm 21:15 Cloudy 40 4.7 26 -3.5 56 56 Calm 30.24 1024 10 16.0934 0 0
9:35 pm 21:35 Cloudy with Light Rain 40 4.5 26 -3.1 58 58 Calm 30.24 1024 10 16.0934 0 0
9:55 pm 21:55 Cloudy with Light Rain 40 4.2 28 -2.5 62 62 NNW 6 9 30.24 1024 10 16.0934 0 0
10:15 pm 22:15 Cloudy with Light Rain 38 3.5 31 -0.5 75 75 NNW 8 13 30.24 1024 10 16.0934 0 0
10:35 pm 22:35 Cloudy with Light Rain 38 3.1 31 -0.8 76 76 N 8 13 30.24 1024 10 16.0934 0 0
10:55 pm 22:55 Cloudy with Light Rain 37 2.7 30 -1 77 77 NNE 7 11 30.24 1024 10 16.0934 0 0
11:15 pm 23:15 Cloudy with Light Rain 37 2.5 31 -0.4 81 81 NNE 5 7 30.24 1024 10 16.0934 0 0
11:35 pm 23:35 Cloudy with Light Rain 36 2 32 -0.2 86 86 N 3 6 30.24 1024 5 8.0467 0 0
11:55 pm 23:55 Cloudy with Light Rain 35 1.4 32 0.2 92 92 N 3 6 30.24 1024 3 4.82802 0 0

Powered by AerisWeather